Torna al catalogo

STARLINK-36274

AttivoComunicazioniVLEO
NORAD 68251·PAYLOAD·🇺🇸 United States

Lanciato Mar 17, 2026 da Vandenberg Space Force Base

Loading…

Prossimi Passaggi (prossime 24 ore)

TLE

AggiornatoSource: CelesTrak SupGP

Epoca: Sep 14, 2026, 20:59 UTC

1 68251C 26054V   26257.87479167 -.00056534  00000+0 -16701-2 0  2578
2 68251  53.1577 136.1894 0001191  81.0920 316.5799 15.34422036    17

Traccia STARLINK-36274 in tempo reale con AllMySat

Download on the App Store